This is the latest recevied weather packets stored in our database for station/object HA6IFZ-10. If no packets are shown the sender has not sent any weather packets the latest 10 day(s).
| Time | Temp. | Humidity | Pressure | Rain* | Wind** | Luminosity | Snow |
|---|---|---|---|---|---|---|---|
| 1787413672 | 25° C | 35% | 1023.9 hPa | - | - | - | - |
| 1787412772 | 25.56° C | 35% | 1023.8 hPa | - | - | - | - |
| 1787411884 | 25.56° C | 36% | 1023.6 hPa | - | - | - | - |
| 1787410972 | 26.11° C | 35% | 1023.4 hPa | - | - | - | - |
| 1787410072 | 26.67° C | 36% | 1023.2 hPa | - | - | - | - |
| 1787409172 | 26.67° C | 36% | 1023.2 hPa | - | - | - | - |
| 1787408272 | 26.67° C | 35% | 1023.1 hPa | - | - | - | - |
| 1787407371 | 26.67° C | 34% | 1023 hPa | - | - | - | - |
| 1787406471 | 27.22° C | 33% | 1023 hPa | - | - | - | - |
| 1787405571 | 27.22° C | 31% | 1022.8 hPa | - | - | - | - |
| 1787404671 | 27.78° C | 34% | 1022.8 hPa | - | - | - | - |
| 1787403771 | 27.22° C | 34% | 1022.6 hPa | - | - | - | - |
| 1787402871 | 26.11° C | 35% | 1022.6 hPa | - | - | - | - |
| 1787401971 | 26.67° C | 36% | 1022.7 hPa | - | - | - | - |
| 1787401071 | 27.22° C | 35% | 1022.5 hPa | - | - | - | - |
| 1787400170 | 26.11° C | 37% | 1022.4 hPa | - | - | - | - |
| 1787399270 | 26.67° C | 38% | 1022.3 hPa | - | - | - | - |
| 1787398370 | 26.11° C | 38% | 1022.5 hPa | - | - | - | - |
| 1787397469 | 26.11° C | 39% | 1022.6 hPa | - | - | - | - |
| 1787395670 | 25.56° C | 42% | 1022.5 hPa | - | - | - | - |
| 1787394770 | 25.56° C | 43% | 1022.4 hPa | - | - | - | - |
| 1787393870 | 23.89° C | 44% | 1022.4 hPa | - | - | - | - |
| 1787392970 | 24.44° C | 44% | 1022.5 hPa | - | - | - | - |
| 1787392070 | 23.89° C | 46% | 1022.5 hPa | - | - | - | - |
| 1787391170 | 24.44° C | 45% | 1022.4 hPa | - | - | - | - |
* Rain since midnight (hover to see other rain measurements)
** Current wind speed in m/s (hover to see current wind gust speed)